User: anonymous   Login
Location: Napier
(39.4830°S, 176.9170°E)
Time: 06:19:55
(UTC+13:00)
Language:

COSMOS 2428 - Orbit

View from above orbital plane
View from above orbital plane
View from above satellite
View from above satellite

Ground track
Ground track

The orbit data is extracted from the following two-line orbital elements,

1 31792U 07029A   19288.45600966 -.00000237  00000-0 -10224-3 0  9990
2 31792  70.9340  69.3266 0007406  62.5322 297.6551 14.12429816634136
Epoch (UTC): 15 October 2019 10:56:39
Eccentricity: 0.0007406
inclination: 70.9340°
perigee height: 846 km
apogee height: 856 km
right ascension of ascending node: 69.3266°
argument of perigee: 62.5322°
revolutions per day: 14.12429816
mean anomaly at epoch: 297.6551°
orbit number at epoch: 63413

The dashed part of the orbit path shows where the satellite is in the earth's shadow,  

DLR